This demonstration page uses our WeatherBlox Daily Observations layout. Learn more.

Left ArrowRight Arrow

Hourly Observations for March 21, 2020

Temp ( °F °C ) Dew Point ( °F °C ) Humidity (%) Winds ( mph kmh ) Pressure ( in mb ) Visibility ( mi km ) Precip ( " mm )
12:56 am 00:56 Clear 18 -7.8 13 -10.6 81 81 ESE 7 11 30.60 1036 10 16 0.00 0.00
1:56 am 01:56 Clear 18 -7.8 14 -10 84 84 ESE 8 13 30.58 1035 10 16 0.00 0.00
2:56 am 02:56 Clear 19 -7.2 15 -9.4 84 84 SE 10 17 30.54 1034 10 16 0.00 0.00
3:56 am 03:56 Mostly Clear 18 -7.8 15 -9.4 88 88 SE 9 15 30.51 1033 10 16 0.00 0.00
4:56 am 04:56 Clear 18 -7.8 15 -9.4 88 88 SSE 9 15 30.49 1033 10 16 0.00 0.00
5:56 am 05:56 Clear 18 -7.8 15 -9.4 88 88 SSE 10 17 30.50 1033 10 16 0.00 0.00
6:56 am 06:56 Mostly Clear 17 -8.3 15 -9.4 92 92 SSE 10 17 30.49 1033 10 16 0.00 0.00
7:56 am 07:56 Sunny 17 -8.3 15 -9.4 92 92 S 9 15 30.50 1033 10 16 0.00 0.00
8:56 am 08:56 Sunny 21 -6.1 17 -8.3 85 85 SSE 16 26 30.49 1033 10 16 0.00 0.00
9:56 am 09:56 Sunny 25 -3.9 18 -7.8 75 75 S 17 28 30.49 1032 10 16 0.00 0.00
10:56 am 10:56 Sunny 30 -1.1 20 -6.7 66 66 S 23 37 30.46 1032 10 16 0.00 0.00
11:56 am 11:56 Sunny 34 1.1 20 -6.7 56 56 S 20 31 30.43 1031 10 16 0.00 0.00
12:56 pm 12:56 Sunny 38 3.3 22 -5.6 52 52 S 21 33 30.40 1029 10 16 0.00 0.00
1:56 pm 13:56 Sunny 41 5 24 -4.4 51 51 SSW 23 37 30.35 1028 10 16 0.00 0.00
2:56 pm 14:56 Sunny 45 7.2 25 -3.9 46 46 SSW 17 28 30.31 1026 10 16 0.00 0.00
3:56 pm 15:56 Sunny 47 8.3 26 -3.3 44 44 S 20 31 30.27 1025 10 16 0.00 0.00
4:56 pm 16:56 Sunny 49 9.4 27 -2.8 43 43 S 20 31 30.23 1024 10 16 0.00 0.00
5:56 pm 17:56 Sunny 50 10 28 -2.2 43 43 S 16 26 30.20 1023 10 16 0.00 0.00
6:56 pm 18:56 Sunny 47 8.3 29 -1.7 50 50 S 13 20 30.20 1023 10 16 0.00 0.00
7:56 pm 19:56 Clear 43 6.1 29 -1.7 58 58 SSE 8 13 30.21 1023 10 16 0.00 0.00
8:56 pm 20:56 Clear 40 4.4 29 -1.7 65 65 SSE 9 15 30.21 1023 10 16 0.00 0.00
9:56 pm 21:56 Clear 39 3.9 28 -2.2 65 65 SSE 10 17 30.21 1023 10 16 0.00 0.00
10:56 pm 22:56 Clear 38 3.3 28 -2.2 68 68 SSE 13 20 30.21 1023 10 16 0.00 0.00
11:56 pm 23:56 Clear 38 3.3 29 -1.7 70 70 S 14 22 30.20 1023 10 16 0.00 0.00

Powered by AerisWeather